Time,TemperatureF,DewpointF,PressureIn,WindDirection,WindDirectionDegrees,WindSpeedMPH,WindSpeedGustMPH,Humidity,HourlyPrecipIn,Conditions,Clouds,dailyrainin,SoftwareType,DateUTC
2013-12-21 00:13:00,51.4,48.3,29.88,SW,225,0.0,-999.0,89,-99.99,,,0.00,Acu-Link.com,2013-12-21 05:13:00,
2013-12-21 00:28:00,51.3,48.2,29.87,SW,225,0.0,-999.0,89,-99.99,,,0.00,Acu-Link.com,2013-12-21 05:28:00,
2013-12-21 00:43:00,51.1,48.0,29.87,SW,225,0.0,-999.0,89,-99.99,,,0.00,Acu-Link.com,2013-12-21 05:43:00,
2013-12-21 00:59:00,50.9,48.1,29.86,SW,225,0.0,-999.0,90,-99.99,,,0.00,Acu-Link.com,2013-12-21 05:59:00,
2013-12-21 01:14:00,50.9,48.1,29.87,SW,225,0.0,-999.0,90,-99.99,,,0.00,Acu-Link.com,2013-12-21 06:14:00,
2013-12-21 01:29:00,50.5,47.7,29.87,SW,225,0.0,-999.0,90,-99.99,,,0.00,Acu-Link.com,2013-12-21 06:29:00,
2013-12-21 01:44:00,50.4,47.6,29.86,SW,225,0.0,-999.0,90,-99.99,,,0.00,Acu-Link.com,2013-12-21 06:44:00,
2013-12-21 01:59:00,50.9,48.1,29.87,SW,225,0.0,-999.0,90,-99.99,,,0.00,Acu-Link.com,2013-12-21 06:59:00,
2013-12-21 02:15:00,51.3,48.5,29.86,SW,225,0.0,-999.0,90,-99.99,,,0.00,Acu-Link.com,2013-12-21 07:15:00,
2013-12-21 02:30:00,50.9,48.1,29.86,SW,225,0.0,-999.0,90,-99.99,,,0.00,Acu-Link.com,2013-12-21 07:30:00,
2013-12-21 02:45:00,50.7,47.9,29.85,SW,225,0.0,-999.0,90,-99.99,,,0.00,Acu-Link.com,2013-12-21 07:45:00,
2013-12-21 03:01:00,51.3,48.5,29.85,WSW,247,0.0,-999.0,90,-99.99,,,0.00,Acu-Link.com,2013-12-21 08:01:00,
2013-12-21 03:16:00,51.6,48.8,29.85,WSW,247,1.7,-999.0,90,-99.99,,,0.00,Acu-Link.com,2013-12-21 08:16:00,
2013-12-21 03:31:00,52.0,48.9,29.85,WSW,247,0.0,-999.0,89,-99.99,,,0.00,Acu-Link.com,2013-12-21 08:31:00,
2013-12-21 03:46:00,52.5,49.4,29.84,WSW,247,0.0,-999.0,89,-99.99,,,0.00,Acu-Link.com,2013-12-21 08:46:00,
2013-12-21 04:01:00,52.5,49.4,29.84,WSW,247,0.0,-999.0,89,-99.99,,,0.00,Acu-Link.com,2013-12-21 09:01:00,
2013-12-21 04:17:00,52.0,48.9,29.85,WSW,247,1.7,-999.0,89,-99.99,,,0.00,Acu-Link.com,2013-12-21 09:17:00,
2013-12-21 04:32:00,51.6,48.8,29.85,WSW,247,0.0,-999.0,90,-99.99,,,0.00,Acu-Link.com,2013-12-21 09:32:00,
2013-12-21 04:47:00,51.3,48.5,29.85,WSW,247,0.0,-999.0,90,-99.99,,,0.00,Acu-Link.com,2013-12-21 09:47:00,
2013-12-21 05:02:00,51.3,48.8,29.85,ESE,112,2.2,-999.0,91,-99.99,,,0.00,Acu-Link.com,2013-12-21 10:02:00,
2013-12-21 05:17:00,51.3,48.8,29.85,WSW,247,0.0,-999.0,91,-99.99,,,0.00,Acu-Link.com,2013-12-21 10:17:00,
2013-12-21 05:33:00,50.9,48.4,29.85,WSW,247,0.0,-999.0,91,-99.99,,,0.00,Acu-Link.com,2013-12-21 10:33:00,
2013-12-21 05:48:00,50.5,48.0,29.85,SW,225,0.0,-999.0,91,-99.99,,,0.00,Acu-Link.com,2013-12-21 10:48:00,
2013-12-21 06:03:00,50.4,48.2,29.86,SSW,202,0.0,-999.0,92,-99.99,,,0.00,Acu-Link.com,2013-12-21 11:03:00,
2013-12-21 06:18:00,50.4,48.2,29.86,South,180,0.0,-999.0,92,-99.99,,,0.00,Acu-Link.com,2013-12-21 11:18:00,
2013-12-21 06:33:00,50.4,48.2,29.87,WSW,247,0.0,-999.0,92,-99.99,,,0.00,Acu-Link.com,2013-12-21 11:33:00,
2013-12-21 06:49:00,50.5,48.3,29.87,SW,225,0.0,-999.0,92,-99.99,,,0.00,Acu-Link.com,2013-12-21 11:49:00,
2013-12-21 07:04:00,50.5,48.3,29.87,SW,225,0.0,-999.0,92,-99.99,,,0.00,Acu-Link.com,2013-12-21 12:04:00,
2013-12-21 07:19:00,50.7,48.5,29.87,SW,225,1.7,-999.0,92,-99.99,,,0.00,Acu-Link.com,2013-12-21 12:19:00,
2013-12-21 07:34:00,50.7,48.5,29.87,SW,225,0.0,-999.0,92,-99.99,,,0.00,Acu-Link.com,2013-12-21 12:34:00,
2013-12-21 07:50:00,50.9,48.7,29.86,SW,225,1.7,-999.0,92,-99.99,,,0.00,Acu-Link.com,2013-12-21 12:50:00,
2013-12-21 08:05:00,52.0,49.7,29.87,SE,135,1.7,-999.0,92,-99.99,,,0.00,Acu-Link.com,2013-12-21 13:05:00,
2013-12-21 08:20:00,52.5,49.9,29.86,SSE,157,0.0,-999.0,91,-99.99,,,0.00,Acu-Link.com,2013-12-21 13:20:00,
2013-12-21 08:35:00,53.6,51.0,29.87,SSW,202,0.0,-999.0,91,-99.99,,,0.00,Acu-Link.com,2013-12-21 13:35:00,
2013-12-21 08:50:00,54.7,51.8,29.87,WSW,247,2.7,-999.0,90,-99.99,,,0.00,Acu-Link.com,2013-12-21 13:50:00,
2013-12-21 09:06:00,55.2,52.3,29.88,SE,135,0.0,-999.0,90,-99.99,,,0.00,Acu-Link.com,2013-12-21 14:06:00,
2013-12-21 09:21:00,56.5,53.3,29.89,West,270,2.2,-999.0,89,-99.99,,,0.00,Acu-Link.com,2013-12-21 14:21:00,
2013-12-21 09:36:00,57.9,54.1,29.88,WSW,247,0.0,-999.0,87,-99.99,,,0.00,Acu-Link.com,2013-12-21 14:36:00,
2013-12-21 09:51:00,58.6,54.4,29.88,West,270,2.7,-999.0,86,-99.99,,,0.00,Acu-Link.com,2013-12-21 14:51:00,
2013-12-21 10:06:00,59.2,55.0,29.88,East,90,2.2,-999.0,86,-99.99,,,0.00,Acu-Link.com,2013-12-21 15:06:00,
2013-12-21 10:22:00,60.4,55.9,29.89,ENE,67,2.2,-999.0,85,-99.99,,,0.00,Acu-Link.com,2013-12-21 15:22:00,
2013-12-21 10:37:00,63.0,57.1,29.88,SW,225,1.7,-999.0,81,-99.99,,,0.00,Acu-Link.com,2013-12-21 15:37:00,
2013-12-21 10:52:00,64.2,57.9,29.87,SE,135,0.0,-999.0,80,-99.99,,,0.00,Acu-Link.com,2013-12-21 15:52:00,
2013-12-21 11:07:00,64.9,58.2,29.87,ESE,112,2.7,-999.0,79,-99.99,,,0.00,Acu-Link.com,2013-12-21 16:07:00,
2013-12-21 11:22:00,67.3,59.1,29.86,NNW,337,3.7,-999.0,75,-99.99,,,0.00,Acu-Link.com,2013-12-21 16:22:00,
2013-12-21 11:38:00,66.2,59.1,29.85,East,90,1.7,-999.0,78,-99.99,,,0.00,Acu-Link.com,2013-12-21 16:38:00,
2013-12-21 11:53:00,66.9,59.4,29.85,East,90,1.7,-999.0,77,-99.99,,,0.00,Acu-Link.com,2013-12-21 16:53:00,
2013-12-21 12:08:00,67.3,60.2,29.84,SW,225,3.2,-999.0,78,-99.99,,,0.00,Acu-Link.com,2013-12-21 17:08:00,
2013-12-21 12:24:00,68.9,60.6,29.83,West,270,2.2,-999.0,75,-99.99,,,0.00,Acu-Link.com,2013-12-21 17:24:00,
2013-12-21 12:39:00,69.3,61.4,29.81,WSW,247,2.2,-999.0,76,-99.99,,,0.00,Acu-Link.com,2013-12-21 17:39:00,
2013-12-21 12:54:00,70.9,61.8,29.80,SSE,157,0.0,-999.0,73,-99.99,,,0.00,Acu-Link.com,2013-12-21 17:54:00,
2013-12-21 13:09:00,72.5,62.5,29.81,SE,135,2.2,-999.0,71,-99.99,,,0.00,Acu-Link.com,2013-12-21 18:09:00,
2013-12-21 13:24:00,72.0,62.5,29.80,NNE,22,3.7,-999.0,72,-99.99,,,0.00,Acu-Link.com,2013-12-21 18:24:00,
2013-12-21 13:40:00,73.4,62.2,29.80,ESE,112,2.2,-999.0,68,-99.99,,,0.00,Acu-Link.com,2013-12-21 18:40:00,
2013-12-21 13:55:00,73.9,62.2,29.78,ESE,112,2.7,-999.0,67,-99.99,,,0.00,Acu-Link.com,2013-12-21 18:55:00,
2013-12-21 14:10:00,73.4,61.8,29.78,ENE,67,4.2,-999.0,67,-99.99,,,0.00,Acu-Link.com,2013-12-21 19:10:00,
2013-12-21 14:26:00,73.2,62.4,29.78,ESE,112,1.7,-999.0,69,-99.99,,,0.00,Acu-Link.com,2013-12-21 19:26:00,
2013-12-21 14:41:00,73.4,62.2,29.78,WSW,247,1.1,-999.0,68,-99.99,,,0.00,Acu-Link.com,2013-12-21 19:41:00,
2013-12-21 14:56:00,72.0,62.1,29.78,East,90,3.2,-999.0,71,-99.99,,,0.00,Acu-Link.com,2013-12-21 19:56:00,
2013-12-21 15:11:00,72.1,62.6,29.78,WSW,247,1.7,-999.0,72,-99.99,,,0.00,Acu-Link.com,2013-12-21 20:11:00,
2013-12-21 15:26:00,72.3,62.8,29.78,WSW,247,1.1,-999.0,72,-99.99,,,0.00,Acu-Link.com,2013-12-21 20:26:00,
2013-12-21 15:42:00,71.6,62.9,29.77,West,270,2.2,-999.0,74,-99.99,,,0.00,Acu-Link.com,2013-12-21 20:42:00,
2013-12-21 15:57:00,70.7,63.1,29.77,SW,225,2.2,-999.0,77,-99.99,,,0.00,Acu-Link.com,2013-12-21 20:57:00,
2013-12-21 16:12:00,70.5,62.9,29.77,ESE,112,2.2,-999.0,77,-99.99,,,0.00,Acu-Link.com,2013-12-21 21:12:00,
2013-12-21 16:27:00,70.0,62.8,29.76,ESE,112,0.0,-999.0,78,-99.99,,,0.00,Acu-Link.com,2013-12-21 21:27:00,
2013-12-21 16:42:00,69.3,63.2,29.77,SW,225,1.1,-999.0,81,-99.99,,,0.00,Acu-Link.com,2013-12-21 21:42:00,
2013-12-21 16:58:00,68.7,63.0,29.77,SE,135,2.2,-999.0,82,-99.99,,,0.00,Acu-Link.com,2013-12-21 21:58:00,
2013-12-21 17:13:00,68.4,62.7,29.77,West,270,2.7,-999.0,82,-99.99,,,0.00,Acu-Link.com,2013-12-21 22:13:00,
2013-12-21 17:28:00,67.6,62.6,29.77,SW,225,1.7,-999.0,84,-99.99,,,0.00,Acu-Link.com,2013-12-21 22:28:00,
2013-12-21 17:43:00,66.6,61.9,29.78,South,180,0.0,-999.0,85,-99.99,,,0.00,Acu-Link.com,2013-12-21 22:43:00,
2013-12-21 17:58:00,65.5,61.5,29.78,NNE,22,1.7,-999.0,87,-99.99,,,0.00,Acu-Link.com,2013-12-21 22:58:00,
2013-12-21 18:14:00,65.1,61.8,29.77,SE,135,0.0,-999.0,89,-99.99,,,0.00,Acu-Link.com,2013-12-21 23:14:00,
2013-12-21 18:29:00,64.6,61.3,29.77,SSE,157,0.0,-999.0,89,-99.99,,,0.00,Acu-Link.com,2013-12-21 23:29:00,
2013-12-21 18:44:00,65.7,62.4,29.78,South,180,1.1,-999.0,89,-99.99,,,0.00,Acu-Link.com,2013-12-21 23:44:00,
2013-12-21 18:59:00,66.2,62.9,29.78,SE,135,2.7,-999.0,89,-99.99,,,0.00,Acu-Link.com,2013-12-21 23:59:00,
2013-12-21 19:15:00,66.4,63.1,29.77,SW,225,5.3,-999.0,89,-99.99,,,0.00,Acu-Link.com,2013-12-22 00:15:00,
2013-12-21 19:30:00,66.7,63.4,29.78,WSW,247,3.2,-999.0,89,-99.99,,,0.00,Acu-Link.com,2013-12-22 00:30:00,
2013-12-21 19:45:00,66.9,63.5,29.78,East,90,2.2,-999.0,89,-99.99,,,0.00,Acu-Link.com,2013-12-22 00:45:00,
2013-12-21 20:00:00,67.1,63.7,29.78,North,0,1.7,-999.0,89,-99.99,,,0.00,Acu-Link.com,2013-12-22 01:00:00,
2013-12-21 20:15:00,66.9,63.5,29.79,SW,225,1.7,-999.0,89,-99.99,,,0.00,Acu-Link.com,2013-12-22 01:15:00,
2013-12-21 20:31:00,66.7,63.7,29.79,ESE,112,3.2,-999.0,90,-99.99,,,0.00,Acu-Link.com,2013-12-22 01:31:00,
2013-12-21 20:46:00,66.6,63.6,29.78,ESE,112,4.2,-999.0,90,-99.99,,,0.00,Acu-Link.com,2013-12-22 01:46:00,
2013-12-21 21:01:00,67.3,64.3,29.78,South,180,1.7,-999.0,90,-99.99,,,0.00,Acu-Link.com,2013-12-22 02:01:00,
2013-12-21 21:16:00,67.8,64.8,29.78,SW,225,4.2,-999.0,90,-99.99,,,0.00,Acu-Link.com,2013-12-22 02:16:00,
2013-12-21 21:31:00,68.0,65.0,29.78,West,270,5.3,-999.0,90,-99.99,,,0.00,Acu-Link.com,2013-12-22 02:31:00,
2013-12-21 21:47:00,68.0,65.0,29.78,East,90,2.2,-999.0,90,-99.99,,,0.00,Acu-Link.com,2013-12-22 02:47:00,
2013-12-21 22:02:00,68.0,65.0,29.78,SW,225,5.8,-999.0,90,-99.99,,,0.00,Acu-Link.com,2013-12-22 03:02:00,
2013-12-21 22:17:00,67.8,64.8,29.77,SSW,202,4.2,-999.0,90,-99.99,,,0.00,Acu-Link.com,2013-12-22 03:17:00,
2013-12-21 22:32:00,67.6,64.6,29.77,SSW,202,1.7,-999.0,90,-99.99,,,0.00,Acu-Link.com,2013-12-22 03:32:00,
2013-12-21 22:47:00,68.2,65.1,29.77,SE,135,5.3,-999.0,90,-99.99,,,0.00,Acu-Link.com,2013-12-22 03:47:00,
2013-12-21 23:03:00,68.5,65.4,29.77,SSW,202,2.7,-999.0,90,-99.99,,,0.00,Acu-Link.com,2013-12-22 04:03:00,
2013-12-21 23:18:00,68.7,65.6,29.77,SSW,202,4.2,-999.0,90,-99.99,,,0.00,Acu-Link.com,2013-12-22 04:18:00,
2013-12-21 23:33:00,68.9,65.8,29.77,WSW,247,3.7,-999.0,90,-99.99,,,0.00,Acu-Link.com,2013-12-22 04:33:00,
2013-12-21 23:48:00,69.1,66.0,29.77,SSW,202,2.7,-999.0,90,-99.99,,,0.00,Acu-Link.com,2013-12-22 04:48:00,